TimeCST,TemperatureF,Dew PointF,Humidity,Sea Level PressureIn,VisibilityMPH,Wind Direction,Wind SpeedMPH,Gust SpeedMPH,PrecipitationIn,Events,Conditions,WindDirDegrees,DateUTC
12:12 AM,35.6,32.0,87,29.79,10.0,Calm,Calm,-,N/A,,Clear,0,2013-01-19 06:12:00
12:31 AM,35.6,33.8,93,29.79,10.0,Calm,Calm,-,N/A,,Clear,0,2013-01-19 06:31:00
12:51 AM,35.6,32.0,87,29.78,10.0,Calm,Calm,-,N/A,,Clear,0,2013-01-19 06:51:00
1:11 AM,35.6,33.8,93,29.78,10.0,SSW,3.5,-,N/A,,Clear,200,2013-01-19 07:11:00
1:31 AM,35.6,33.8,93,29.77,10.0,SSW,5.8,-,N/A,,Clear,210,2013-01-19 07:31:00
1:51 AM,35.6,33.8,93,29.77,10.0,Calm,Calm,-,N/A,,Clear,0,2013-01-19 07:51:00
2:11 AM,35.6,33.8,93,29.77,10.0,Calm,Calm,-,N/A,,Clear,0,2013-01-19 08:11:00
2:31 AM,35.6,33.8,93,29.77,10.0,SSW,4.6,-,N/A,,Clear,210,2013-01-19 08:31:00
2:52 AM,35.6,33.8,93,29.76,10.0,SSW,5.8,-,N/A,,Clear,210,2013-01-19 08:52:00
3:11 AM,35.6,33.8,93,29.76,10.0,SW,4.6,-,N/A,,Clear,220,2013-01-19 09:11:00
3:31 AM,35.6,33.8,93,29.75,10.0,SSW,4.6,-,N/A,,Clear,200,2013-01-19 09:31:00
3:52 AM,37.4,33.8,87,29.74,10.0,SSW,6.9,-,N/A,,Scattered Clouds,210,2013-01-19 09:52:00
4:11 AM,37.4,33.8,87,29.73,10.0,SW,5.8,-,N/A,,Clear,220,2013-01-19 10:11:00
4:31 AM,35.6,33.8,93,29.73,10.0,SW,6.9,-,N/A,,Clear,220,2013-01-19 10:31:00
4:52 AM,35.6,33.8,93,29.73,10.0,SW,8.1,-,N/A,,Clear,230,2013-01-19 10:52:00
5:11 AM,35.6,33.8,93,29.72,10.0,SW,8.1,-,N/A,,Scattered Clouds,220,2013-01-19 11:11:00
5:32 AM,35.6,33.8,93,29.72,10.0,SW,8.1,-,N/A,,Scattered Clouds,230,2013-01-19 11:32:00
5:51 AM,35.6,33.8,93,29.72,10.0,SW,8.1,-,N/A,,Scattered Clouds,220,2013-01-19 11:51:00
6:11 AM,35.6,33.8,93,29.73,10.0,SW,8.1,-,N/A,,Mostly Cloudy,230,2013-01-19 12:11:00
6:31 AM,35.6,33.8,93,29.72,10.0,SW,6.9,-,N/A,,Mostly Cloudy,230,2013-01-19 12:31:00
6:51 AM,35.6,33.8,93,29.72,10.0,SW,6.9,-,N/A,,Scattered Clouds,230,2013-01-19 12:51:00
7:11 AM,35.6,33.8,93,29.73,10.0,WSW,5.8,-,N/A,,Clear,240,2013-01-19 13:11:00
7:31 AM,37.4,32.0,81,29.72,10.0,WSW,5.8,-,N/A,,Clear,240,2013-01-19 13:31:00
7:51 AM,37.4,32.0,81,29.72,10.0,WSW,5.8,-,N/A,,Clear,250,2013-01-19 13:51:00
8:11 AM,37.4,32.0,81,29.72,10.0,WSW,8.1,-,N/A,,Clear,240,2013-01-19 14:11:00
8:31 AM,37.4,32.0,81,29.73,10.0,WSW,9.2,-,N/A,,Clear,250,2013-01-19 14:31:00
8:51 AM,37.4,32.0,81,29.74,10.0,West,8.1,16.1,N/A,,Clear,270,2013-01-19 14:51:00
9:11 AM,39.2,33.8,81,29.75,10.0,West,10.4,17.3,N/A,,Clear,280,2013-01-19 15:11:00
9:31 AM,39.2,33.8,81,29.76,10.0,West,10.4,18.4,N/A,,Scattered Clouds,280,2013-01-19 15:31:00
9:51 AM,39.2,33.8,81,29.77,10.0,West,10.4,-,N/A,,Clear,280,2013-01-19 15:51:00
10:11 AM,39.2,33.8,81,29.78,10.0,West,8.1,-,N/A,,Clear,280,2013-01-19 16:11:00
10:31 AM,39.2,33.8,81,29.77,10.0,West,5.8,-,N/A,,Scattered Clouds,280,2013-01-19 16:31:00
10:51 AM,39.2,33.8,81,29.79,10.0,West,11.5,17.3,N/A,,Scattered Clouds,280,2013-01-19 16:51:00
11:11 AM,41.0,33.8,76,29.78,10.0,West,12.7,20.7,N/A,,Scattered Clouds,280,2013-01-19 17:11:00
11:31 AM,41.0,33.8,76,29.77,10.0,West,13.8,19.6,N/A,,Clear,270,2013-01-19 17:31:00
11:51 AM,42.8,33.8,70,29.77,10.0,WNW,15.0,27.6,N/A,,Scattered Clouds,290,2013-01-19 17:51:00
12:11 PM,42.8,33.8,70,29.76,10.0,West,12.7,20.7,N/A,,Clear,280,2013-01-19 18:11:00
12:31 PM,39.2,33.8,81,29.76,10.0,WNW,11.5,21.9,N/A,,Clear,300,2013-01-19 18:31:00
12:51 PM,39.2,33.8,81,29.77,10.0,West,13.8,19.6,N/A,,Scattered Clouds,280,2013-01-19 18:51:00
1:31 PM,42.8,35.6,76,29.79,10.0,WNW,13.8,23.0,N/A,,Scattered Clouds,290,2013-01-19 19:31:00
1:51 PM,42.8,35.6,76,29.79,10.0,WNW,16.1,24.2,N/A,,Scattered Clouds,290,2013-01-19 19:51:00
2:11 PM,44.6,35.6,71,29.80,10.0,NW,15.0,21.9,N/A,,Scattered Clouds,310,2013-01-19 20:11:00
2:31 PM,42.8,33.8,70,29.80,10.0,WNW,15.0,24.2,N/A,,Scattered Clouds,300,2013-01-19 20:31:00
2:51 PM,42.8,33.8,70,29.81,10.0,WNW,12.7,29.9,N/A,,Scattered Clouds,290,2013-01-19 20:51:00
3:11 PM,39.2,33.8,81,29.82,10.0,WNW,20.7,35.7,N/A,,Mostly Cloudy,290,2013-01-19 21:11:00
3:31 PM,39.2,33.8,81,29.85,10.0,NW,20.7,29.9,N/A,,Overcast,320,2013-01-19 21:31:00
3:51 PM,32.0,28.4,87,29.87,10.0,NW,18.4,28.8,N/A,,Overcast,310,2013-01-19 21:51:00
4:11 PM,30.2,26.6,86,29.89,10.0,NW,17.3,29.9,N/A,,Mostly Cloudy,310,2013-01-19 22:11:00
4:31 PM,28.4,24.8,86,29.91,10.0,NW,17.3,31.1,N/A,,Mostly Cloudy,310,2013-01-19 22:31:00
4:51 PM,26.6,21.2,80,29.93,10.0,NW,17.3,28.8,N/A,,Mostly Cloudy,310,2013-01-19 22:51:00
5:11 PM,24.8,19.4,80,29.96,10.0,NW,16.1,32.2,N/A,,Mostly Cloudy,310,2013-01-19 23:11:00
5:31 PM,23.0,15.8,74,29.97,10.0,WNW,24.2,39.1,N/A,,Scattered Clouds,290,2013-01-19 23:31:00
5:51 PM,21.2,14.0,74,29.98,10.0,WNW,26.5,43.7,N/A,,Mostly Cloudy,290,2013-01-19 23:51:00
6:11 PM,19.4,10.4,68,30.01,10.0,WNW,20.7,33.4,N/A,,Scattered Clouds,290,2013-01-20 00:11:00
6:31 PM,19.4,8.6,63,30.02,10.0,NW,21.9,41.4,N/A,,Clear,310,2013-01-20 00:31:00
6:51 PM,17.6,10.4,73,30.04,7.0,NW,17.3,31.1,N/A,,Scattered Clouds,310,2013-01-20 00:51:00
7:11 PM,15.8,6.8,68,30.06,10.0,NW,20.7,35.7,N/A,,Scattered Clouds,310,2013-01-20 01:11:00
7:31 PM,14.0,6.8,73,30.07,10.0,NW,25.3,35.7,N/A,,Clear,310,2013-01-20 01:31:00
7:51 PM,12.2,6.8,79,30.08,10.0,NW,20.7,36.8,N/A,,Scattered Clouds,310,2013-01-20 01:51:00
8:12 PM,12.2,6.8,79,30.09,10.0,NW,24.2,34.5,N/A,,Scattered Clouds,310,2013-01-20 02:12:00
8:31 PM,12.2,5.0,73,30.12,10.0,NW,20.7,38.0,N/A,,Scattered Clouds,310,2013-01-20 02:31:00
8:51 PM,10.4,3.2,73,30.13,10.0,NW,18.4,31.1,N/A,,Scattered Clouds,310,2013-01-20 02:51:00
9:12 PM,10.4,3.2,73,30.14,10.0,NW,18.4,27.6,N/A,,Scattered Clouds,310,2013-01-20 03:12:00
9:31 PM,8.6,1.4,73,30.14,10.0,NW,19.6,32.2,N/A,,Scattered Clouds,310,2013-01-20 03:31:00
9:51 PM,8.6,1.4,73,30.15,10.0,NW,16.1,27.6,N/A,,Clear,320,2013-01-20 03:51:00
10:12 PM,8.6,1.4,73,30.16,10.0,NW,16.1,31.1,N/A,,Clear,320,2013-01-20 04:12:00
10:31 PM,6.8,1.4,79,30.16,10.0,NW,13.8,26.5,N/A,,Clear,320,2013-01-20 04:31:00
10:51 PM,6.8,1.4,79,30.18,10.0,NW,15.0,24.2,N/A,,Clear,310,2013-01-20 04:51:00
11:12 PM,6.8,1.4,79,30.18,5.0,NW,15.0,24.2,N/A,,Haze,310,2013-01-20 05:12:00
11:31 PM,6.8,1.4,79,30.18,2.5,NW,12.7,19.6,N/A,,Mostly Cloudy,310,2013-01-20 05:31:00
11:51 PM,6.8,1.4,79,30.19,5.0,NW,12.7,24.2,N/A,,Haze,310,2013-01-20 05:51:00